Date String (YYYY-MM-DD hh:mm:ss) UTC,Instrument flags,Ambient pressure (hPa),Sample flow (lpm),Bypass flow (lpm),Sample temperature (°C),Ambient temperature (°C),ASC tube jacket temperature (°C),LED temperature (°C),Box temperature (°C),Sample RH (%),Span deviation,Mass concentration (μg/m³),Mass concentration (μg/m³),Mass concentration (μg/m³)
DateTimeUTC,F1_M11,P_M11,Q1_M11,Q2_M11,T1_M11,T2_M11,T3_M11,T4_M11,T5_M11,U1_M11,ZSPAN_M11,X0_M11,X2_M11,X1_M11
2022-05-18 09:00:00,,0827.0,5.01,0.00,30.4,29.1,00.0,39.4,32.2,20.8,0000.0,0008.29,0003.66,0002.52
2022-05-18 09:01:00,,0827.0,4.99,0.00,30.4,29.1,00.0,39.4,32.2,20.8,0000.0,0008.62,0003.69,0002.51
2022-05-18 09:02:00,,0827.0,5.01,0.00,30.4,29.1,00.0,39.4,32.2,20.8,0000.0,0008.85,0003.69,0002.48
2022-05-18 09:03:00,,0827.0,5.00,0.00,30.4,29.1,00.0,39.4,32.2,20.8,0000.0,0008.84,0003.69,0002.45
2022-05-18 09:04:00,,0827.0,4.99,0.00,30.4,29.2,00.0,39.4,32.2,20.8,0000.0,0008.79,0003.65,0002.42
2022-05-18 09:05:00,,0827.0,5.00,0.00,30.4,29.2,00.0,39.4,32.2,20.8,0000.0,0008.81,0003.65,0002.39
2022-05-18 09:06:00,,0827.0,5.00,0.00,30.4,29.2,00.0,39.4,32.2,20.8,0000.0,0008.58,0003.68,0002.37
2022-05-18 09:07:00,,0827.1,4.99,0.00,30.4,29.2,00.0,39.4,32.2,20.9,0000.0,0008.55,0003.68,0002.35
2022-05-18 09:08:00,,0827.1,4.99,0.00,30.4,29.2,00.0,39.4,32.2,20.9,0000.0,0008.87,0003.68,0002.34
2022-05-18 09:09:00,,0827.1,4.99,0.00,30.4,29.2,00.0,39.5,32.2,20.8,0000.0,0009.55,0003.66,0002.30
2022-05-18 09:10:00,,0827.0,4.99,0.00,30.4,29.2,00.0,39.5,32.2,20.9,0000.0,0010.23,0003.65,0002.27
2022-05-18 09:11:00,,0827.0,4.99,0.00,30.4,29.2,00.0,39.5,32.2,20.8,0000.0,0010.61,0003.60,0002.25
2022-05-18 09:12:00,,0827.0,5.01,0.00,30.5,29.2,00.0,39.5,32.2,20.8,0000.0,0010.59,0003.59,0002.24
2022-05-18 09:13:00,,0827.0,5.01,0.00,30.5,29.2,00.0,39.5,32.2,20.8,0000.0,0010.45,0003.61,0002.22
2022-05-18 09:14:00,,0827.0,4.99,0.00,30.5,28.5,00.0,39.5,32.2,20.8,0000.0,0010.33,0003.59,0002.20
2022-05-18 09:15:00,,0827.0,5.00,0.00,30.4,25.9,00.0,39.4,32.0,20.9,0000.0,0010.38,0003.57,0002.18
2022-05-18 09:16:00,,0827.0,4.99,0.00,30.3,25.4,00.0,39.3,31.9,21.0,0000.0,0010.45,0003.56,0002.14
2022-05-18 09:17:00,,0827.0,5.01,0.00,30.2,25.8,00.0,39.3,31.7,21.1,0000.0,0010.86,0003.54,0002.09
2022-05-18 09:18:00,,0827.0,5.02,0.00,30.1,26.2,00.0,39.3,31.6,21.2,0000.0,0011.18,0003.49,0002.04
2022-05-18 09:19:00,,0827.0,4.98,0.00,30.0,26.7,00.0,39.2,31.6,21.2,0000.0,0011.13,0003.44,0002.00
2022-05-18 09:20:00,,0827.0,5.01,0.00,30.0,27.0,00.0,39.2,31.6,21.2,0000.0,0010.35,0003.40,0001.95
2022-05-18 09:21:00,,0827.0,5.00,0.00,30.0,27.4,00.0,39.2,31.6,20.8,0000.0,0009.83,0003.36,0001.90
2022-05-18 09:22:00,,0827.0,5.00,0.00,30.0,27.6,00.0,39.2,31.7,20.6,0000.0,0009.71,0003.36,0001.85
2022-05-18 09:23:00,,0827.0,4.99,0.00,30.0,27.8,00.0,39.1,31.7,20.5,0000.0,0009.29,0003.32,0001.79
2022-05-18 09:24:00,,0827.1,5.01,0.00,30.0,28.0,00.0,39.1,31.7,20.5,0000.0,0009.77,0003.28,0001.75
2022-05-18 09:25:00,,0827.1,5.00,0.00,30.0,28.1,00.0,39.1,31.7,20.7,0000.0,0009.84,0003.25,0001.71
2022-05-18 09:26:00,,0827.1,5.00,0.00,30.0,28.3,00.0,39.1,31.7,20.9,0000.0,0009.73,0003.25,0001.70
2022-05-18 09:27:00,,0827.1,5.00,0.00,30.0,28.3,00.0,39.1,31.8,21.2,0000.0,0009.59,0003.24,0001.70
2022-05-18 09:28:00,,0827.1,5.01,0.00,30.0,28.4,00.0,39.1,31.8,21.4,0000.0,0009.39,0003.23,0001.71
2022-05-18 09:29:00,,0827.1,5.00,0.00,30.0,28.5,00.0,39.1,31.7,21.3,0000.0,0008.90,0003.19,0001.72
2022-05-18 09:30:00,,0827.1,5.01,0.00,30.0,28.5,00.0,39.1,31.8,21.1,0000.0,0009.10,0003.23,0001.74
2022-05-18 09:31:00,,0827.1,5.01,0.00,30.0,28.6,00.0,39.1,31.8,20.7,0000.0,0009.88,0003.31,0001.75
2022-05-18 09:32:00,,0827.1,5.00,0.00,30.0,28.6,00.0,39.1,31.8,20.8,0000.0,0009.58,0003.32,0001.75
2022-05-18 09:33:00,,0827.1,5.00,0.00,30.0,28.7,00.0,39.1,31.8,20.8,0000.0,0009.24,0003.30,0001.75
2022-05-18 09:34:00,,0827.1,5.00,0.00,30.0,28.7,00.0,39.1,31.8,20.9,0000.0,0009.23,0003.32,0001.77
2022-05-18 09:35:00,,0827.1,5.00,0.00,30.0,28.7,00.0,39.1,31.8,20.9,0000.0,0009.50,0003.35,0001.80
2022-05-18 09:36:00,,0827.1,5.01,0.00,30.0,28.8,00.0,39.1,31.9,20.8,0000.0,0009.71,0003.37,0001.83
2022-05-18 09:37:00,,0827.1,5.00,0.00,30.1,28.8,00.0,39.1,31.9,20.9,0000.0,0009.70,0003.35,0001.85
2022-05-18 09:38:00,,0827.1,4.99,0.00,30.1,28.8,00.0,39.1,31.9,21.0,0000.0,0009.94,0003.40,0001.86
2022-05-18 09:39:00,,0827.1,5.00,0.00,30.1,28.8,00.0,39.1,31.9,20.9,0000.0,0009.92,0003.42,0001.87
2022-05-18 09:40:00,,0827.1,5.00,0.00,30.1,28.8,00.0,39.1,31.9,20.8,0000.0,0009.95,0003.43,0001.87
2022-05-18 09:41:00,,0827.1,5.00,0.00,30.1,28.9,00.0,39.1,31.9,20.8,0000.0,0009.73,0003.43,0001.88
2022-05-18 09:42:00,,0827.1,4.99,0.00,30.1,28.9,00.0,39.1,31.9,20.8,0000.0,0008.59,0003.35,0001.87
2022-05-18 09:43:00,,0827.1,4.99,0.00,30.1,28.9,00.0,39.1,31.9,20.8,0000.0,0008.56,0003.38,0001.90
2022-05-18 09:44:00,,0827.1,5.00,0.00,30.1,28.9,00.0,39.1,31.9,20.8,0000.0,0008.94,0003.39,0001.93
2022-05-18 09:45:00,,0827.1,5.01,0.00,30.1,28.9,00.0,39.2,32.0,20.9,0000.0,0009.38,0003.37,0001.93
2022-05-18 09:46:00,,0827.0,4.99,0.00,30.2,28.9,00.0,39.2,32.0,20.9,0000.0,0009.22,0003.36,0001.94
2022-05-18 09:47:00,,0827.1,5.00,0.00,30.2,28.9,00.0,39.2,32.0,20.9,0000.0,0008.33,0003.33,0001.92
2022-05-18 09:48:00,,0827.1,5.00,0.00,30.2,29.0,00.0,39.2,32.0,20.9,0000.0,0008.55,0003.30,0001.91
2022-05-18 09:49:00,,0827.1,5.00,0.00,30.2,29.0,00.0,39.2,32.0,20.9,0000.0,0008.43,0003.26,0001.90
2022-05-18 09:50:00,,0827.1,5.01,0.00,30.2,29.0,00.0,39.2,32.0,20.9,0000.0,0008.26,0003.20,0001.86
2022-05-18 09:51:00,,0827.2,5.00,0.00,30.2,29.0,00.0,39.2,32.0,20.9,0000.0,0008.24,0003.20,0001.86
2022-05-18 09:52:00,,0827.1,5.01,0.00,30.2,29.0,00.0,39.2,32.0,20.9,0000.0,0008.30,0003.20,0001.84
2022-05-18 09:53:00,,0827.2,4.99,0.00,30.2,29.0,00.0,39.2,32.0,20.9,0000.0,0008.96,0003.21,0001.85
2022-05-18 09:54:00,,0827.1,4.99,0.00,30.2,29.0,00.0,39.2,32.0,20.9,0000.0,0009.16,0003.20,0001.83
2022-05-18 09:55:00,,0827.3,5.00,0.00,30.2,29.0,00.0,39.3,32.0,20.9,0000.0,0009.71,0003.18,0001.83
2022-05-18 09:56:00,,0827.7,5.00,0.00,30.3,29.1,00.0,39.3,32.1,20.9,0000.0,0009.99,0003.20,0001.83
2022-05-18 09:57:00,,0827.2,5.01,0.00,30.3,29.1,00.0,39.3,32.1,20.9,0000.0,0010.04,0003.18,0001.84
2022-05-18 09:58:00,,0827.3,5.00,0.00,30.3,29.1,00.0,39.3,32.1,20.8,0000.0,0010.12,0003.18,0001.85
2022-05-18 09:59:00,,0827.4,5.00,0.00,30.3,29.1,00.0,39.3,32.1,20.8,0000.0,0009.93,0003.24,0001.86
